Weather reports worldwide

Advertisment
Leucate/Semaphore, France (7666): temperature & dewpoint: 23.10.2020 11:00:00 - 29.10.2020 11:00:00 (CET)Leucate/Semaphore, France (7666): wind speed & gusts: 23.10.2020 11:00:00 - 29.10.2020 11:00:00 (CET)Leucate/Semaphore, France (7666): wind direction: 23.10.2020 11:00:00 - 29.10.2020 11:00:00 (CET)Leucate/Semaphore, France (7666): reduced air pressure: 23.10.2020 11:00:00 - 29.10.2020 11:00:00 (CET)Leucate/Semaphore, France (7666): visibility: 23.10.2020 11:00:00 - 29.10.2020 11:00:00 (CET)Leucate/Semaphore, France (7666): precipitation: 23.10.2020 11:00:00 - 29.10.2020 11:00:00 (CET)
Date & Time tt [°C] td [°C] ff [km/h] ff [kn] fx [km/h] fx [kn] dd ppp [hPa] vv [km] rr [mm]
29.10.2020 11:00:00 - - - - - - - - - -
29.10.2020 10:00:00 17,3 8,4 17 9 37 20 WNW 1026,0 - 0,0
29.10.2020 09:00:00 15,6 8,1 14 7 27 14 NW 1025,9 - 0,0
29.10.2020 08:00:00 14,8 7,8 9 5 15 8 WNW 1024,8 - 0,0
29.10.2020 07:00:00 14,0 8,0 6 4 19 10 WNW 1024,4 20 0,0
29.10.2020 06:00:00 14,4 8,1 10 5 18 10 WNW 1024,6 - 0,0
29.10.2020 05:00:00 14,2 8,8 9 5 22 12 W 1024,1 - 0,0
29.10.2020 04:00:00 14,3 9,7 13 7 35 19 NW 1024,3 15 0,0
29.10.2020 03:00:00 14,4 10,4 12 6 21 11 WNW 1024,2 - 0,0
29.10.2020 02:00:00 14,9 10,7 13 7 33 18 NW 1024,1 - 0,0
29.10.2020 01:00:00 15,4 10,8 18 10 45 24 WNW 1024,0 20 0,0
29.10.2020 00:00:00 15,1 10,7 12 7 29 16 NW 1023,4 - 0,0
28.10.2020 23:00:00 15,6 10,6 13 7 28 15 WNW 1023,2 - 0,0
28.10.2020 22:00:00 16,0 10,3 16 8 46 25 NW 1022,1 - 0,0
28.10.2020 21:00:00 16,3 10,2 20 11 53 28 NW 1022,1 - 0,0
28.10.2020 20:00:00 16,9 11,4 9 5 46 25 NW 1022,1 - 0,0
28.10.2020 19:00:00 17,8 11,8 16 9 32 18 NW 1021,2 20 0,0
28.10.2020 18:00:00 17,8 11,8 17 9 34 19 NW 1020,2 - 0,0
28.10.2020 17:00:00 18,2 11,7 16 9 35 19 NW 1019,7 - 0,0
28.10.2020 16:00:00 18,4 11,7 18 10 31 17 NW 1019,7 - 0,0
28.10.2020 15:00:00 18,6 11,9 9 5 25 13 NW 1019,3 - 0,0
28.10.2020 14:00:00 18,4 12,6 13 7 37 20 NW 1019,6 - 0,0
28.10.2020 13:00:00 16,5 13,6 9 5 18 10 NNW 1020,2 - 0,0
28.10.2020 12:00:00 16,3 12,6 11 6 15 8 S 1020,2 - 0,0
28.10.2020 11:00:00 16,3 11,9 3 2 6 4 SE 1020,0 - 0,0
28.10.2020 10:00:00 15,5 10,9 3 2 16 9 WSW 1019,8 - 0,0
28.10.2020 09:00:00 14,1 10,7 5 3 10 5 NNW 1019,0 - 0,0
28.10.2020 08:00:00 13,3 9,7 3 2 9 5 WNW 1018,1 - 0,0
28.10.2020 07:00:00 13,4 10,0 4 2 8 4 SSE 1017,0 - 0,0
28.10.2020 06:00:00 14,0 10,0 9 5 12 6 S 1016,9 - 0,0
28.10.2020 05:00:00 12,8 9,2 9 5 13 7 SW 1016,8 - 0,0
28.10.2020 04:00:00 13,4 8,5 5 3 14 8 WNW 1016,5 15 0,0
28.10.2020 03:00:00 13,7 8,3 10 5 18 10 NNW 1016,3 - 0,0
28.10.2020 02:00:00 12,9 7,6 8 5 16 8 NW 1016,6 - 0,0
28.10.2020 01:00:00 13,2 7,8 7 4 9 5 NNW 1016,4 15 0,0
28.10.2020 00:00:00 13,1 9,0 5 3 14 8 W 1016,2 - 0,0
27.10.2020 23:00:00 11,7 7,4 10 5 11 6 WNW 1016,3 - 0,0
27.10.2020 22:00:00 13,2 11,4 0 0 6 3 N 1015,9 20 0,0
27.10.2020 21:00:00 12,2 9,2 4 2 19 10 WSW 1015,9 - 0,0
27.10.2020 20:00:00 14,7 12,0 16 9 22 12 S 1015,6 - 0,0
27.10.2020 19:00:00 13,8 9,8 13 7 24 13 SSW 1015,6 - 0,0
27.10.2020 18:00:00 14,9 10,5 22 12 31 17 S 1015,1 - 0,0
27.10.2020 17:00:00 15,7 11,3 27 14 33 18 SSE 1014,6 - 0,0
27.10.2020 16:00:00 17,4 9,6 5 3 29 15 N 1014,2 25 0,0
27.10.2020 15:00:00 18,3 8,3 14 7 32 18 NNW 1014,2 - 0,0
27.10.2020 14:00:00 17,9 7,6 13 7 31 17 NNW 1014,6 - 0,0
27.10.2020 13:00:00 16,8 8,2 13 7 40 22 NW 1015,2 - 0,0
27.10.2020 12:00:00 16,5 7,7 19 10 47 25 NW 1016,2 - 0,0
27.10.2020 11:00:00 14,2 7,9 18 10 45 25 NW 1016,4 - 0,0
27.10.2020 10:00:00 13,2 7,6 18 10 50 27 NW 1016,4 25 0,0
27.10.2020 09:00:00 12,9 7,3 23 13 45 24 WNW 1016,0 - 0,0
27.10.2020 08:00:00 12,6 6,8 19 10 38 20 WNW 1015,6 - 0,0
27.10.2020 07:00:00 12,3 6,3 22 12 39 21 WNW 1014,9 18 0,0
27.10.2020 06:00:00 11,7 6,2 18 10 46 25 WNW 1014,6 - 0,0
27.10.2020 05:00:00 12,0 5,6 19 10 41 22 WNW 1014,4 - 0,0
27.10.2020 04:00:00 11,8 5,6 15 8 36 19 WNW 1014,3 15 0,0
27.10.2020 03:00:00 12,0 4,9 20 11 40 21 W 1014,7 - 0,0
27.10.2020 02:00:00 10,4 4,5 11 6 22 12 WNW 1015,0 - 0,0
27.10.2020 01:00:00 11,4 4,8 14 8 36 20 WNW 1015,1 15 0,0
27.10.2020 00:00:00 10,5 4,4 13 7 22 12 WNW 1015,1 - 0,0
26.10.2020 23:00:00 10,1 4,7 13 7 21 12 NW 1015,4 - 0,0
26.10.2020 22:00:00 10,6 4,7 9 5 23 12 NW 1015,1 20 0,0
26.10.2020 21:00:00 11,4 5,3 16 9 49 26 NW 1014,7 - 0,0
26.10.2020 20:00:00 12,0 5,6 23 12 64 34 NW 1014,1 - 0,0
26.10.2020 19:00:00 12,6 5,5 24 13 51 28 WNW 1013,8 - 0,0
26.10.2020 18:00:00 13,1 6,0 24 13 48 26 NW 1012,6 - 0,0
26.10.2020 17:00:00 13,6 6,2 23 13 58 31 NW 1011,8 - 0,0
26.10.2020 16:00:00 13,4 5,8 28 15 64 35 NW 1011,0 25 0,0
26.10.2020 15:00:00 15,0 6,5 30 16 66 36 NW 1010,1 - 0,0
26.10.2020 14:00:00 14,2 6,8 31 17 70 38 NW 1010,2 - 0,0
26.10.2020 13:00:00 14,7 7,0 30 16 67 36 NW 1010,8 20 0,0
26.10.2020 12:00:00 13,8 6,9 27 14 64 35 NW 1010,9 - 0,0
26.10.2020 11:00:00 12,4 7,1 25 14 55 30 NW 1011,3 - 0,0
26.10.2020 10:00:00 11,8 7,3 24 13 49 26 WNW 1011,5 20 0,0
26.10.2020 09:00:00 10,9 7,6 19 10 40 22 NW 1010,9 - 0,2
26.10.2020 08:00:00 11,1 7,6 15 8 35 19 WNW 1009,8 - 0,0
26.10.2020 07:00:00 10,9 7,6 13 7 29 16 NW 1008,8 15 0,2
26.10.2020 06:00:00 10,7 8,1 12 6 35 19 NW 1008,4 - 0,2
26.10.2020 05:00:00 10,9 7,9 17 9 40 22 NW 1008,2 - 0,0
26.10.2020 04:00:00 10,4 8,3 22 12 42 23 NW 1007,8 15 0,4
26.10.2020 03:00:00 10,9 9,2 18 10 50 27 NW 1008,4 - 0,6
26.10.2020 02:00:00 11,2 9,1 23 13 63 34 NW 1008,4 15 0,2
26.10.2020 01:00:00 12,9 7,6 32 17 73 40 NW 1008,2 15 0,0
26.10.2020 00:00:00 13,9 9,3 19 11 45 25 WNW 1007,5 - 0,0
25.10.2020 23:00:00 13,6 11,8 12 6 27 15 NW 1007,0 - 0,0
25.10.2020 22:00:00 13,8 12,7 13 7 20 11 NW 1006,9 15 0,0
25.10.2020 21:00:00 14,4 12,8 4 2 14 8 NNW 1005,7 - 0,0
25.10.2020 20:00:00 14,8 12,5 3 2 10 5 ENE 1006,5 - 0,0
25.10.2020 19:00:00 14,4 11,9 4 2 5 3 N 1007,0 15 0,0
25.10.2020 18:00:00 15,0 12,1 3 2 4 2 WNW 1007,8 - 0,0
25.10.2020 17:00:00 16,8 12,3 0 0 5 3 N 1008,3 - 0,0
25.10.2020 16:00:00 16,9 12,6 0 0 10 5 N 1008,5 - 0,0
25.10.2020 15:00:00 16,4 12,9 5 3 17 9 S 1009,0 - 0,0
25.10.2020 14:00:00 16,0 13,3 6 4 16 9 S 1009,5 - 0,0
25.10.2020 13:00:00 15,2 12,5 3 2 11 6 N 1010,3 8 0,0
25.10.2020 12:00:00 14,4 12,6 8 4 17 9 NNW 1011,6 - 0,0
25.10.2020 11:00:00 14,0 12,4 9 5 18 10 NNW 1011,4 - 0,0
25.10.2020 10:00:00 13,2 12,3 11 6 19 11 NNW 1011,4 8 0,0
25.10.2020 09:00:00 12,8 12,2 10 6 26 14 NW 1011,6 - 0,0
25.10.2020 08:00:00 12,8 12,0 15 8 29 16 NW 1011,8 - 0,0
25.10.2020 07:00:00 12,8 11,4 17 9 32 17 NNW 1011,5 15 0,0
25.10.2020 06:00:00 13,0 11,7 20 11 34 19 NNW 1012,0 - 0,0
25.10.2020 05:00:00 13,1 11,8 18 10 30 16 NNW 1012,0 - 0,0
25.10.2020 04:00:00 13,5 12,2 18 10 31 17 N 1012,2 15 0,0
25.10.2020 03:00:00 13,0 11,2 18 10 30 16 NNW 1013,1 - 0,0
25.10.2020 02:00:00 12,7 11,4 18 10 27 14 NNW 1014,0 - 0,0
25.10.2020 01:00:00 - - - - - - - - - -
25.10.2020 00:00:00 13,4 12,3 17 9 23 13 N 1015,1 - 0,0
24.10.2020 23:00:00 13,6 12,2 11 6 15 8 N 1015,9 - 0,0
24.10.2020 22:00:00 15,0 12,7 8 5 18 10 S 1016,3 - 0,0
24.10.2020 21:00:00 16,2 11,8 15 8 22 12 SSW 1016,6 - 0,0
24.10.2020 20:00:00 15,0 12,9 16 9 24 13 SW 1017,4 - 0,0
24.10.2020 19:00:00 15,0 12,9 14 8 21 11 SSW 1017,6 15 0,0
24.10.2020 18:00:00 15,5 12,4 14 8 27 15 S 1017,7 - 0,0
24.10.2020 17:00:00 16,4 10,7 15 8 21 11 S 1018,1 - 0,0
24.10.2020 16:00:00 16,4 12,4 15 8 21 11 S 1018,5 - 0,0
24.10.2020 15:00:00 17,2 12,1 13 7 18 10 S 1019,0 - 0,0
24.10.2020 14:00:00 17,4 12,3 11 6 22 12 S 1019,6 - 0,0
24.10.2020 13:00:00 17,7 11,9 10 5 25 13 SSE 1020,4 25 0,0
24.10.2020 12:00:00 19,9 9,7 11 6 30 16 NNW 1021,1 - 0,0
24.10.2020 11:00:00 18,6 9,9 14 8 29 16 NW 1021,4 - 0,0
24.10.2020 10:00:00 17,1 10,0 18 10 34 19 NW 1021,9 30 0,0
24.10.2020 09:00:00 15,9 9,6 11 6 34 18 WNW 1022,0 - 0,0
24.10.2020 08:00:00 14,3 9,5 12 7 32 18 W 1021,7 - 0,0
24.10.2020 07:00:00 14,0 9,6 18 10 34 18 WNW 1021,5 20 0,0
24.10.2020 06:00:00 14,0 9,6 13 7 36 20 WNW 1021,8 - 0,0
24.10.2020 05:00:00 14,4 9,8 18 10 39 21 NW 1021,5 - 0,0
24.10.2020 04:00:00 14,3 9,7 17 9 43 23 NW 1021,7 18 0,0
24.10.2020 03:00:00 15,0 10,0 18 10 36 19 NW 1021,8 - 0,0
24.10.2020 02:00:00 15,1 10,7 17 9 48 26 NW 1022,0 - 0,0
24.10.2020 01:00:00 15,8 10,8 21 11 45 24 NW 1021,8 18 0,0
24.10.2020 00:00:00 15,9 11,1 18 10 39 21 NW 1021,7 - 0,0
23.10.2020 23:00:00 16,0 11,0 22 12 40 22 NW 1021,1 - 0,0
23.10.2020 22:00:00 16,4 10,5 16 9 31 17 NW 1021,1 18 0,0
23.10.2020 21:00:00 16,4 10,3 17 9 39 21 NW 1020,0 - 0,0
23.10.2020 20:00:00 16,5 11,4 15 8 35 19 NW 1019,7 - 0,0
23.10.2020 19:00:00 16,4 12,0 12 7 29 16 NNW 1019,1 - 0,6
23.10.2020 18:00:00 17,6 10,9 17 9 57 31 WNW 1018,4 - 0,0
23.10.2020 17:00:00 18,0 11,3 26 14 63 34 NW 1016,8 - 0,0
23.10.2020 16:00:00 19,1 11,6 30 16 59 32 NW 1016,3 20 0,2
23.10.2020 15:00:00 17,6 13,9 23 12 46 25 WNW 1015,8 - 1,0
23.10.2020 14:00:00 18,3 16,5 11 6 16 9 SSW 1015,5 - 0,0
23.10.2020 13:00:00 19,1 15,8 14 7 16 9 S 1015,5 8 0,0
23.10.2020 12:00:00 19,4 15,7 5 3 11 6 SE 1015,7 - 0,0
23.10.2020 11:00:00 18,4 15,5 9 5 12 7 S 1015,8 - 0,0

tt = temperature
td = dewpoint
ff = wind speed
fx = gusts
dd = wind direction
ppp = reduced air pressure
vv = visibility
rr = precipitation

Next stations